CZ-3B DEB, 42465

Orbit data source: Space-Track

CZ-3B DEB, 42465 is space debris in HEO originally from a launch on Sat, 04 Sep 2010 UTC launched from the Xichang Space Center, China (XSC). Debris objects in space refer to the collection of defunct objects orbiting the Earth. Examples of debris include non-operational satellites, rocket bodies, and fragments generated from explosions, collisions, or faulty payload assembly.

Loading next visibility...
Identifier
42465, 2010-042AG
Orbit
HEO
Country
Flag of CNCN / PRC
Related business
Manufacturer
CALT
Mission
Spacecraft
Bus & Motor
Unknown
Mass
Unknown
Launch date (UTC)
2010-09-04 (16 years ago)
Launch vehicle
Unknown
Launch site
Xichang Space Center, China (XSC)
Object type
Payload
Rocket body
Debris
Shape & HBR
Unknown shape, 0.2 m
Radar Cross Section
Medium (>0.1 m² and <1 m²)

Expand to show TLE details & history
Last TLE update: 6 days ago

TLE from 6 days ago
0 CZ-3B DEB
1 42465U 10042AG  26249.56166803  .00000072  00000-0  75145-2 0  9999
2 42465  24.6134  66.0713 7442592  49.5549 354.8066  1.87570539   743
Epoch: 2026-09-06T13:28Z
TLE epoch observation values (Epoch: 2026-09-06T13:28:48.117Z)
Latitude
0.0001°
Longitude
-121.75926°
Altitude
1,977.366 km
Speed
9.003 km/s
True Right ascension
04h 24m 23s
True Declination
0° 00' 00"
Sunlit
Object was in daylight at epoch
Visualization orbit readout
Latitude
Unknown
Longitude
Unknown
Altitude
Unknown
Speed
Unknown
Apparent Right ascension
Unknown
Apparent Declination
Unknown
Sunlit
N/A
Visualization observer readout
Local Sidereal Time
20:32:09
Azimuth
Unknown
Elevation
Unknown
Doppler factor
Unknown
Orbital elements
Apogee altitude
42,072.366 km
Perigee altitude
725.607 km
Semi-major axis
27,777.123 km
Eccentricity
0.74426
Inclination
24.6134°
RAAN
66.0713°
Arg. of periapsis
49.5549°
True anomaly
312.20595°
Mean anomaly
354.8066°
Eccentric anomaly
340.74203°
Mean motion
0.46883 °/min
Orbital period
767.87 mins
BSTAR
0.0075145
Loading maneuver chart data...
Computing Atmospheric mass density...
Loading historical data...
Loading historical data...
Loading historical data...
Loading historical data...
Loading historical data...
Loading historical data...
Loading historical data...

Documentation

Showing up to 5 results
|